Regional Weather Roundup
Issued by NWS Corpus Christi, TX

Home | Current Version | Previous Version | Text Only | Print | Product List | Glossary On
Versions: 1 2 3 4 5 6 7 8 9 10 11 12 13 14 15 16 17 18 19 20 21 22 23 24 25 26 27
000
ASUS44 KCRP 231811
RWRCRP

SOUTH TEXAS REGIONAL WEATHER ROUNDUP
NATIONAL WEATHER SERVICE CORPUS CHRISTI TX
100 PM CDT MON MAY 23 2022


TXZ229>244-231900-
...CORPUS CHRISTI AREA OBSERVATIONS...

CITY           SKY/WX    TMP DP  RH WIND       PRES   REMARKS
CORPUS CHRISTI PTSUNNY   83  74  74 E15G22    29.96F
NAS CORPUS CHR PTSUNNY   86  75  69 E18       29.95F HX  95
ROCKPORT       PTSUNNY   86  74  67 E17G25    29.94F HX  94
KINGSVILLE NAS PTSUNNY   87  70  56 E13       29.95F HX  92
ALICE          PTSUNNY   86  70  58 E10G20    29.95F HX  90
$$

...VICTORIA AREA OBSERVATIONS...

CITY           SKY/WX    TMP DP  RH WIND       PRES   REMARKS
PORT LAVACA    PTSUNNY   87  70  57 E9        29.98F HX  91
VICTORIA       PTSUNNY   87  68  52 E13G20    29.97F HX  90
BEEVILLE       FAIR      87  65  47 E9        29.96F
PLEASANTON     PTSUNNY   85  66  54 E7        29.99F
SAN ANTONIO    PTSUNNY   81  65  58 E9        30.02F
$$

...LAREDO AREA OBSERVATIONS...

CITY           SKY/WX    TMP DP  RH WIND       PRES   REMARKS
LAREDO         CLOUDY    85  67  54 SE9       29.94F
COTULLA        CLOUDY    84  66  54 E10G20    29.96F
DEL RIO        PTSUNNY   79  65  62 E16G26    29.94F
MCALLEN        PTSUNNY   90  69  50 E15G24    29.92F HX  94
HEBBRONVILLE   MOSUNNY   85  67  53 E12       29.96F
$$

...OTHER TEXAS OBSERVATIONS...

CITY           SKY/WX    TMP DP  RH WIND       PRES   REMARKS
BROWNSVILLE    PTSUNNY   88  73  61 E16G26    29.94F HX  95
HOUSTON        PTSUNNY   76  66  71 N9        30.03S
COL. STATION   MOSUNNY   81  67  62 E8        30.02F
AUSTIN         PTSUNNY   83  65  54 VRB6      30.00F
TEMPLE         PTSUNNY   78  66  66 E9        30.03F
WACO           PTSUNNY   78  65  63 SE9       30.02F
FORT WORTH     CLOUDY    72  63  73 E6        30.04S
WICHITA FALLS  CLOUDY    62  57  83 E10       30.06F
LUBBOCK        CLOUDY    61  51  70 SE16      30.04F
EL PASO        MOSUNNY   80  41  24 VRB3      29.97F
$$

...MARINE OBSERVATIONS...

STATION/POSITION TIME  SKY/WX   TEMP    WIND        PRES    VSBY  WAVE   SWELL
                                AIR SEA DIR/SP/G                  HT/PER HT/PER
                 (UTC)          (F)     (DEG/KT/KT) (MB)    (MI)  (FT/S) (FT/S)
PORT ARANSAS     1700            77      50/ 15/ 17   N/A
ARANSAS PASS     1730            77 80   40/ 17/ 18 1014.0F
BUOY 6 SE PORT A NOT AVBL
BUOY 90 E PORT A 1750            80                 1014.7F         5/ 8   2/ 9
BUOY 45 SE BAFFI 1750            80 81   80/ 12/ 16 1014.6F         6/ 9   5/ 9
BUOY 200 E PT IS 1750            80 81  100/  4/  6 1015.2F         4/ 7   3/ 7
BUOY 15 E GALVES 1750                    40/ 14/ 16 1016.3F
$$



USA.gov is the U.S. government's official web portal to all federal, state and local government web resources and services.